Flag for U.S.A. Weather past 2 weeks in Aliso Viejo, California, U.S.A.

Now
71 °F

Scattered clouds.


Feels Like: 75 °F
Forecast: 64 / 73 °F
Wind: 7 mph from Southwest

Location: John Wayne Airport-Orange County Airport

Current Time: Jul 4, 2015 at 5:21:21 PM

Latest Report: Jul 4, 2015 at 4:53 PM


Visibility: 10 mi

Pressure: 29.86 "Hg

Humidity: 68%

Dew point: 60 °F

Location of Aliso ViejoLocation

Historic Weather in Aliso Viejo — Graph

°F

Aliso Viejo temperature yesterday

Maximum temperature yesterday: 76 °F (at 12:53 PM)
Minimum temperature yesterday: 65 °F (at 3:53 AM)
Average temperature yesterday: 69 °F

Past Weeks' High & Low Weather Summary

 TemperatureHumidityPressure
High86 °F (Jun 30, 7:53 PM)97% (Jun 30, 6:53 AM)30.02 "Hg (Jun 30, 6:53 AM)
Low62 °F (Jun 20, 5:53 AM)36% (Jun 30, 7:53 PM)29.78 "Hg (Jun 30, 7:53 PM)
Average70 °F74%29.90 "Hg
* Reported Jun 19 3:53 PM — Jul 4 3:53 PM, Aliso Viejo, Weather by CustomWeather, © 2015

Note: Actual official high and low records may vary slightly from our data, if they occured in-between our weather recording intervals... More about our weather records

Advertising

Aliso Viejo weather history for previous 24 hours

 ConditionsComfort  
Time TempWeatherWind HumidityBarometerVisibility
3:53 PM
Sat, Jul 4
73 °FScattered clouds.9 mph64%29.87 "Hg10 mi
2:53 PM74 °FScattered clouds.9 mph62%29.89 "Hg10 mi
1:53 PM75 °FScattered clouds.8 mph60%29.89 "Hg10 mi
12:53 PM74 °FPassing clouds.9 mph62%29.90 "Hg10 mi
11:53 AM73 °FScattered clouds.7 mph64%29.90 "Hg10 mi
10:53 AM69 °FPartly sunny.3 mph70%29.90 "Hg10 mi
9:53 AM67 °FOvercast.3 mph79%29.90 "Hg10 mi
8:53 AM66 °FOvercast.No wind81%29.90 "Hg10 mi
7:53 AM65 °FOvercast.No wind85%29.89 "Hg10 mi
6:53 AM65 °FOvercast.3 mph85%29.88 "Hg10 mi
5:53 AM65 °FOvercast.6 mph85%29.87 "Hg10 mi
4:53 AM65 °FOvercast.No wind87%29.87 "Hg10 mi
3:53 AM65 °FOvercast.3 mph87%29.86 "Hg10 mi
2:53 AM65 °FOvercast.3 mph87%29.88 "Hg10 mi
1:53 AM65 °FPassing clouds.3 mph87%29.88 "Hg10 mi
12:53 AM65 °FPassing clouds.3 mph87%29.88 "Hg10 mi
11:53 PM
Fri, Jul 3
66 °FClear.3 mph84%29.89 "Hg10 mi
10:53 PM66 °FPassing clouds.3 mph84%29.89 "Hg10 mi
9:53 PM67 °FPassing clouds.6 mph85%29.88 "Hg10 mi
8:53 PM67 °FScattered clouds.5 mph81%29.86 "Hg10 mi
7:53 PM70 °FScattered clouds.5 mph73%29.84 "Hg10 mi
6:53 PM72 °FScattered clouds.5 mph68%29.83 "Hg10 mi
5:53 PM74 °FScattered clouds.7 mph62%29.83 "Hg10 mi
Weather by CustomWeather, © 2015

See weather overviewHow to use our weather pages